Location: Schommer Observatory
(40.5200°N, 74.4500°W)
Time: 00:05:07
(UTC-04:00)

Vanguard 1 Rocket - Visible Passes

Search period start: 24 May 2018 00:00
Search period end: 03 June 2018 00:00
Orbit: 652 x 4225 km, 34.3° (Epoch: 23 May)

Date Brightness Start Highest point End Pass type
(mag) Time Alt. Az. Time Alt. Az. Time Alt. Az.
24 May 10.1 00:48:30 10° WSW 01:05:20 69° SSE 01:31:16 10° E visible
24 May 10.5 03:15:40 10° W 03:37:48 72° S 04:03:03 10° ESE visible
24 May 10.1 21:16:34 10° S 21:25:36 24° SE 21:39:19 10° E visible
24 May 9.9 23:37:34 10° SW 23:51:39 59° SSE 00:15:34 10° E visible
25 May 10.3 02:03:11 10° W 02:22:36 74° S 02:48:56 10° ESE visible
25 May 10.7 04:31:49 10° W 04:55:18 61° SSW 05:18:28 10° SE visible
25 May 9.8 22:27:29 10° SSW 22:39:05 45° SE 22:59:21 10° E visible
26 May 10.1 00:51:26 10° WSW 01:07:54 71° S 01:33:53 10° E visible
26 May 10.5 03:18:37 10° W 03:40:16 69° SSW 04:05:35 10° ESE visible
26 May 9.9 21:18:25 10° S 21:27:37 30° SE 21:42:38 10° E visible
26 May 9.8 23:40:24 10° WSW 23:54:08 64° SSE 00:18:09 10° E visible
27 May 10.3 02:06:12 10° W 02:25:11 73° S 02:51:32 10° ESE visible
27 May 10.7 04:34:46 10° W 04:57:29 56° SSW 05:20:37 10° SE visible
27 May 9.7 22:30:06 10° SW 22:41:26 51° SSE 23:02:00 10° E visible
28 May 10.1 00:54:27 10° WSW 01:10:33 73° S 01:36:29 10° E visible
28 May 10.5 03:21:37 10° W 03:42:42 65° SSW 04:07:56 10° SE visible
28 May 9.7 21:20:39 10° SSW 21:29:48 35° SE 21:45:38 10° E visible
28 May 9.8 23:43:21 10° WSW 23:56:45 67° SSE 00:20:43 10° E visible
29 May 10.3 02:09:14 10° W 02:27:47 71° S 02:54:01 10° ESE visible
29 May 10.7 04:37:49 10° W 04:59:36 49° SSW 05:22:31 10° SE visible
29 May 9.5 22:32:53 10° SW 22:43:55 56° SSE 23:04:37 10° E visible
30 May 10.0 00:57:31 10° W 01:13:15 73° S 01:39:01 10° ESE visible
30 May 10.5 03:24:39 10° W 03:45:03 60° SSW 04:10:05 10° SE visible
30 May 9.5 21:23:09 10° SSW 21:32:08 41° SE 21:48:28 10° E visible
30 May 9.7 23:46:23 10° WSW 23:59:26 70° S 00:23:15 10° E visible
31 May 10.3 02:12:19 10° W 02:30:21 67° SSW 02:56:20 10° ESE visible
31 May 10.8 04:41:00 10° W 05:01:40 43° SW 05:24:04 10° SSE visible
31 May 9.4 22:35:50 10° WSW 22:46:33 61° SSE 23:07:11 10° E visible
01 Jun 10.0 01:00:38 10° W 01:15:58 71° S 01:41:28 10° ESE visible
01 Jun 10.5 03:27:44 10° W 03:47:22 54° SSW 04:11:58 10° SE visible
01 Jun 9.3 21:25:52 10° SW 21:34:39 47° SSE 21:51:11 10° E visible
01 Jun 9.7 23:49:30 10° WSW 00:02:14 71° S 00:25:46 10° E visible
02 Jun 10.3 02:15:26 10° W 02:32:54 62° SSW 02:58:29 10° SE visible
02 Jun 10.9 04:44:24 10° W 05:03:43 37° SW 05:25:13 10° SSE visible
02 Jun 9.4 22:38:52 10° WSW 22:49:19 65° SSE 23:09:45 10° E visible
